Regional Weather Roundup
Issued by NWS Sterling, VA

Home | Current Version | Previous Version | Text Only | Print | Product List | Glossary Off
Versions: 1 2 3 4 5 6 7 8 9 10 11 12 13 14 15 16 17 18 19 20 21 22 23 24 25 26 27 28 29

000
ASUS41 KLWX 200311
RWRLWX

REGIONAL WEATHER ROUNDUP
NATIONAL WEATHER SERVICE BALTIMORE MD/WASHINGTON DC
1100 PM EDT THU OCT 19 2017

Note: "FAIR" indicates few or no clouds below 12,000 feet
with no significant weather and/or obstructions to visibility.
 TC=TEMPERATURE CELSIUS

 * =Non NWS site. Station does not report precipitation (e.g. rain,
    snow, etc.), thunder, or fog.

DCZ001-MDZ009-015-VAZ040>042-051-053>054-200400-
WASHINGTON METRO

CITY           SKY/WX    TMP DP  RH WIND       PRES   REMARKS
WASHINGTON NAT PTCLDY    59  53  80 SW6       30.17R
DULLES         PTCLDY    50  48  93 S3        30.17S
ANDREWS AFB    CLEAR     56  48  76 SW6       30.15S
FT BELVOIR     CLEAR     50  49  95 CALM      30.17R
QUANTICO       CLEAR     54  53  97 NW7       30.18R
COLLEGE PARK*  CLEAR     49  48  96 CALM      30.16R
LEESBURG*      CLEAR     54  50  87 W5        30.18S
MANASSAS*      CLEAR     50  47  89 S3        30.18R
GAITHERSBURG*  CLEAR     50  48  93 CALM      30.17S

$$

MDZ006>007-011-014-200400-
BALTIMORE METRO

CITY           SKY/WX    TMP DP  RH WIND       PRES   REMARKS
BWI AIRPORT    PTCLDY    50  49  96 W3        30.15S
MD SCIENCE CTR   N/A     61  48  62 MISG      30.15S
MARTIN STATE   CLEAR     55  55 100 CALM      30.16S
ANNAPOLIS      CLEAR     59  56  89 CALM      30.16R
FORT MEADE*    CLEAR     45  45 100 CALM      30.18S

$$

MDZ012-015-019>023-200400-
MARYLAND EASTERN SHORE

CITY           SKY/WX    TMP DP  RH WIND       PRES   REMARKS
OCEAN CITY     CLEAR     55  53  93 SW6       30.17F FOG
SALISBURY      CLEAR     50  49  96 CALM      30.17S
CAMBRIDGE*     CLEAR     52  50  93 CALM      30.16S
EASTON*        CLEAR     55  53  92 CALM      30.19

$$

MDZ017>025-200400-
SOUTHERN MARYLAND

CITY           SKY/WX    TMP DP  RH WIND       PRES   REMARKS
PATUXENT RIVER PTCLDY    54  49  83 SW5       30.16F
ST INIGOES     CLEAR     50  50 100 CALM      30.16F
LEONARDTOWN*   NOT AVBL

$$

MDZ003>005-200400-
NORTH CENTRAL MARYLAND

CITY           SKY/WX    TMP DP  RH WIND       PRES   REMARKS
FREDERICK*     CLEAR     50  50 100 CALM      30.19S
HAGERSTOWN APT CLEAR     67  42  40 SW6       30.16F
WESTMINSTER*   CLEAR     57  48  72 CALM      30.16S

$$

MDZ501>502-200400-
WESTERN MARYLAND

CITY           SKY/WX    TMP DP  RH WIND       PRES   REMARKS
OAKLAND*       CLEAR     52  39  62 W7        30.22S
CUMBERLAND*    CLEAR     55  45  67 W3        30.23S

$$

VAZ025>031-200400-
SHENANDOAH VALLEY

CITY           SKY/WX    TMP DP  RH WIND       PRES   REMARKS
WINCHESTER*    CLEAR     55  41  58 CALM      30.18S
FRONT ROYAL*   CLEAR     50  45  81 MISG      30.17S
LURAY*         CLEAR     46  45  93 CALM      30.19R
NEW MARKET*    CLEAR     47  42  84 CALM      30.20R
STAUNTON*      CLEAR     46  39  78 CALM      30.23R
WAYNESBORO*    CLEAR     62  41  46 W6        30.21S

$$

WVZ021-048>050-054>055-200400-
EASTERN WEST VIRGINIA PANHANDLE

CITY           SKY/WX    TMP DP  RH WIND       PRES   REMARKS
MARTINSBURG    CLEAR     55  44  66 CALM      30.16S
PETERSBURG*    CLOUDY    47  41  80 CALM      30.22R

$$

VAZ036>039-050-200400-
CENTRAL FOOTHILLS

CITY           SKY/WX    TMP DP  RH WIND       PRES   REMARKS
CHARLOTTESVILL CLEAR     55  48  77 W3        30.18S
CULPEPER*      CLEAR     48  45  88 CALM      30.19R
ORANGE*        CLEAR     46  45  93 CALM      30.18S
GORDONSVILLE*  CLEAR     49  48  95 CALM      30.17S
WARRENTON*     CLEAR     45  41  86 CALM      30.17R

$$

VAZ055>057-200400-
NORTH AND CENTRAL PIEDMONT

CITY           SKY/WX    TMP DP  RH WIND       PRES   REMARKS
FREDERICKSBRG* CLEAR     51  51  98 CALM      30.16F
STAFFORD*      CLEAR     46  46 100 CALM      30.20S

$$

NCZ024-NYZ072-PAZ021-071-VAZ022-071-200400-
OTHER REGIONAL OBSERVATIONS

CITY           SKY/WX    TMP DP  RH WIND       PRES   REMARKS
NEW YORK CITY  CLEAR     63  45  51 MISG      30.11F
PHILADELPHIA   CLEAR     61  49  64 SW13      30.13F
PITTSBURGH     MOCLDY    61  47  59 SW7       30.18S
ROANOKE        CLEAR     53  46  77 CALM      30.25S
RICHMOND       CLEAR     56  46  69 CALM      30.18F
RALEIGH        PTCLDY    50  49  96 CALM      30.23S

$$

ANZ530>537-200400-
MARINE OBSERVATIONS

STATION/POSITION TIME  TEMP    WIND        PRES
                       AIR SEA DIR/SP/G
                 (UTC) (F)     (DEG/KT/KT) (MB)
THOMAS PT LIGHT  0300   63 68  240/  8/  9   N/A
BALT KEY BRIDGE  0248   60     260/  6/  7 1020.8R
COVE POINT       0248   64     170/  5/  5 1022.0F
LEWISETTA        0248          240/  4/  4 1021.5F
SOLOMONS ISLAND  0248   62 69  220/  4/  5 1021.1F
PINEY POINT      0236          230/  8/  8   N/A

$$





USA.gov is the U.S. government's official web portal to all federal, state and local government web resources and services.